Location: Bothwell
(42.3833°S, 147.0000°E)
Time: 13:44:31
(UTC+11:00)

GNOMES-3 - Visible Passes

Search period start: 27 February 2024 00:00
Search period end: 08 March 2024 00:00
Orbit: 626 x 644 km, 97.9° (Epoch: 26 February)

Date Brightness Start Highest point End Pass type
(mag) Time Alt. Az. Time Alt. Az. Time Alt. Az.
27 Feb ? 01:30:56 10° SSW 01:31:27 12° SSW 01:31:27 12° SSW visible
28 Feb ? 00:15:35 10° SSE 00:16:04 13° SSE 00:16:04 13° SSE visible
29 Feb ? 00:37:33 10° S 00:38:10 14° S 00:38:10 14° S visible
01 Mar ? 00:59:42 10° S 01:00:14 13° S 01:00:14 13° S visible
02 Mar ? 01:22:03 10° SSW 01:22:18 11° SSW 01:22:18 11° SSW visible
04 Mar ? 00:28:51 10° S 00:28:57 11° S 00:28:57 11° S visible
05 Mar ? 00:50:54 10° S 00:50:59 11° S 00:50:59 11° S visible
